Date,TemperatureHighF,TemperatureAvgF,TemperatureLowF,DewpointHighF,DewpointAvgF,DewpointLowF,HumidityHigh,HumidityAvg,HumidityLow,PressureMaxIn,PressureMinIn,WindSpeedMaxMPH,WindSpeedAvgMPH,GustSpeedMaxMPH,PrecipitationSumIn
2013-1-1,30.2,13.0,-2.9,16.4,4.9,-8.1,82,71,50,30.59,30.31,9,1,16,0.00
2013-1-2,31.9,12.2,-4.2,12.4,2.0,-9.6,81,66,35,30.61,30.47,10,0,12,0.00
2013-1-3,27.9,19.2,11.7,8.8,6.1,2.7,70,57,42,30.55,30.46,15,4,18,0.00
2013-1-4,36.9,13.7,-5.7,11.4,1.6,-10.3,82,63,27,30.66,30.52,6,0,6,0.00
2013-1-5,43.5,16.3,-3.6,15.8,3.9,-8.4,82,62,22,30.72,30.60,5,0,9,0.00
2013-1-6,40.8,18.9,4.2,17.7,8.1,-1.1,89,65,38,30.63,30.24,11,0,12,0.00
2013-1-7,36.8,23.8,5.9,18.4,10.7,2.1,86,59,41,30.25,30.15,15,3,19,0.00
2013-1-8,46.4,33.1,20.9,19.9,4.3,-99.9,59,37,28,30.33,30.18,14,-79,14,0.00
2013-1-9,46.9,31.6,17.0,22.8,18.9,11.6,82,61,36,30.41,30.18,9,0,11,0.00
2013-1-10,42.5,35.1,19.1,26.0,19.4,14.5,84,54,38,30.18,29.62,33,11,37,0.00
2013-1-11,26.0,17.3,-3.9,20.4,2.5,-11.2,80,54,30,30.15,29.65,25,8,29,0.00
2013-1-12,25.1,7.3,-9.0,3.7,-4.7,-15.0,75,60,35,30.37,30.15,9,1,12,0.00
2013-1-13,27.1,8.6,-10.2,3.6,-3.8,-16.5,85,59,32,30.39,30.25,16,2,18,0.00
2013-1-14,17.8,10.8,4.0,4.8,-1.0,-11.3,77,59,43,30.50,30.27,16,7,18,0.00
2013-1-15,28.3,16.5,-3.9,9.6,-0.5,-15.2,63,47,34,30.70,30.50,16,5,19,0.00
2013-1-16,38.2,21.6,0.6,14.9,7.6,-4.9,78,56,37,30.74,30.59,5,0,9,0.00
2013-1-17,39.2,21.4,4.8,17.2,9.8,0.0,81,63,38,30.69,30.55,9,1,10,0.00
2013-1-18,41.1,21.0,2.0,20.6,10.1,-3.0,82,65,40,30.67,30.53,4,0,7,0.00
2013-1-19,47.2,23.1,3.2,24.1,11.5,-1.6,83,65,31,30.67,30.55,5,0,6,0.00
2013-1-20,45.4,21.5,-0.1,21.8,10.2,-5.3,81,65,34,30.61,30.47,6,0,7,0.00
2013-1-21,47.4,24.4,5.4,22.3,10.3,0.3,81,60,27,30.56,30.46,9,0,10,0.00
2013-1-22,53.2,27.4,6.9,21.1,12.5,1.5,81,59,24,30.58,30.47,4,0,6,0.00
2013-1-23,51.4,31.5,11.3,25.3,17.4,6.3,89,60,30,30.54,30.41,6,0,9,0.00
2013-1-24,50.5,39.0,31.4,38.7,31.7,25.0,91,76,46,30.42,30.22,17,2,23,0.01
2013-1-25,53.9,41.4,33.0,42.5,36.2,30.7,95,83,54,30.27,30.10,8,0,10,0.26
2013-1-26,43.9,40.5,38.0,42.0,37.7,35.6,93,90,84,30.10,29.79,22,5,26,0.83
2013-1-27,47.4,40.9,36.9,39.6,35.1,26.8,89,80,64,29.91,29.76,33,14,38,0.11
2013-1-28,37.2,28.7,16.3,30.6,21.8,11.7,90,76,50,29.96,29.71,26,9,29,0.01
2013-1-29,32.5,22.7,7.4,17.9,10.9,1.4,85,62,42,30.33,29.96,28,8,31,0.01
2013-1-30,45.7,30.5,16.5,26.9,17.1,7.3,84,58,41,30.44,30.30,12,2,16,0.00
2013-1-31,48.3,31.8,15.9,29.0,21.8,12.2,87,69,41,30.40,30.32,10,0,12,0.00
2013-2-1,52.1,30.7,13.1,30.2,20.3,9.2,86,69,34,30.48,30.33,6,0,10,0.00
2013-2-2,50.7,32.2,17.9,30.5,21.6,13.9,86,68,37,30.52,30.41,8,0,18,0.01
2013-2-3,45.4,34.4,24.4,32.7,27.6,21.4,88,77,56,30.41,30.11,8,0,10,0.00
2013-2-4,50.3,32.9,20.1,33.8,22.4,15.3,88,69,34,30.23,30.13,10,1,12,0.00
2013-2-5,54.1,33.7,14.7,28.8,20.8,10.2,85,63,34,30.24,30.07,8,0,10,0.01
2013-2-6,51.8,38.7,22.6,31.5,26.1,18.1,86,63,38,30.09,29.91,20,4,24,0.00
2013-2-7,50.9,34.3,17.3,29.9,23.0,13.8,95,66,37,30.22,30.01,12,1,16,0.00
2013-2-8,42.5,36.3,28.5,30.6,23.4,12.1,84,60,41,30.01,29.68,30,11,36,0.00
2013-2-9,30.7,25.4,21.4,21.6,18.5,14.2,87,75,58,30.01,29.63,26,10,35,0.01
2013-2-10,28.6,24.6,13.2,24.7,16.7,4.2,89,72,53,30.08,29.94,24,9,30,0.00
2013-2-11,29.0,14.1,-0.8,19.7,7.2,-5.5,82,74,58,30.42,30.08,4,0,7,0.00
2013-2-12,38.4,18.6,-0.5,15.3,6.9,-5.5,83,63,33,30.55,30.42,9,1,11,0.00
2013-2-13,42.5,24.2,6.5,21.5,12.6,1.9,82,64,39,30.49,30.36,10,1,14,0.00
2013-2-14,43.1,28.3,10.6,25.5,16.4,6.5,85,64,41,30.44,30.33,15,3,20,0.00
2013-2-15,48.4,31.9,13.7,23.9,12.9,5.1,89,51,23,30.54,30.44,14,2,17,0.00
2013-2-16,54.3,30.5,9.7,21.8,11.6,3.8,79,51,21,30.55,30.26,6,0,15,0.00
2013-2-17,51.5,36.5,14.9,17.4,12.8,8.3,78,43,21,30.27,29.84,30,8,35,0.00
2013-2-18,49.5,33.5,15.3,21.3,14.4,7.6,77,48,30,30.09,29.96,16,2,19,0.00
2013-2-19,46.4,31.7,13.4,24.2,14.6,8.4,83,53,28,30.06,29.66,23,5,27,0.00
2013-2-20,33.0,27.4,19.9,24.8,20.4,12.9,88,75,57,29.84,29.54,17,4,23,0.08
2013-2-21,33.8,25.7,5.8,25.4,18.2,1.7,88,73,54,30.08,29.84,22,9,26,0.00
2013-2-22,39.2,24.1,7.6,15.4,9.2,1.6,82,57,24,30.30,30.08,14,1,14,0.00
2013-2-23,45.0,28.7,9.7,23.5,15.6,4.8,82,61,36,30.29,29.86,36,9,40,0.00
2013-2-24,30.6,25.2,17.8,18.6,8.7,3.4,76,51,33,30.24,29.89,24,8,27,0.00
2013-2-25,49.0,33.8,16.1,15.6,9.7,4.2,60,38,23,30.32,30.00,18,3,21,0.00
2013-2-26,38.4,31.5,21.6,11.0,5.0,-2.3,53,33,23,30.25,29.95,25,4,32,0.00
2013-2-27,38.8,27.4,15.9,8.3,2.4,-2.5,54,35,21,30.45,30.24,12,2,15,0.00
2013-2-28,46.4,29.4,10.7,8.7,2.7,-2.1,65,35,16,30.56,30.45,13,2,18,0.00
2013-3-1,55.0,39.8,17.6,24.2,18.2,6.9,75,43,29,30.57,30.40,14,4,17,0.00
2013-3-2,62.6,39.6,16.1,29.0,20.4,11.8,86,52,24,30.51,30.22,12,0,13,0.00
2013-3-3,59.8,47.1,29.2,30.4,21.4,15.7,67,37,19,30.22,29.74,36,14,45,0.00
2013-3-4,56.0,43.8,22.6,27.7,22.9,16.2,77,45,28,30.11,29.72,33,6,38,0.00
2013-3-5,56.5,35.9,14.3,26.4,19.0,10.4,86,56,25,30.30,30.10,17,2,20,0.00
2013-3-6,57.6,47.9,35.9,28.4,25.7,22.3,60,43,29,30.13,29.85,19,7,24,0.00
2013-3-7,56.8,42.4,23.0,28.0,22.8,16.7,79,49,27,29.94,29.83,25,5,30,0.00
2013-3-8,40.7,31.4,23.6,33.2,26.4,17.8,90,82,53,29.86,29.61,32,6,38,0.57
2013-3-9,35.0,30.7,25.9,29.2,24.6,19.7,86,78,71,30.17,29.81,25,10,33,0.15
2013-3-10,45.9,36.7,31.2,26.6,22.0,13.9,78,57,33,30.29,30.17,17,7,25,0.03
2013-3-11,58.8,36.1,15.4,27.9,19.8,10.3,82,56,28,30.32,30.14,7,0,7,0.00
2013-3-12,59.0,39.2,20.4,29.1,23.2,16.1,86,58,27,30.31,30.20,10,1,15,0.00
2013-3-13,62.6,45.8,21.2,34.5,26.1,17.3,86,51,26,30.38,30.27,12,1,14,0.00
2013-3-14,68.9,44.6,22.9,35.3,24.1,18.3,85,53,18,30.37,30.21,10,0,13,0.00
2013-3-15,71.3,51.2,24.5,36.6,26.2,19.2,83,45,17,30.24,29.91,20,5,22,0.00
2013-3-16,66.6,51.0,31.4,36.4,28.4,23.7,83,45,20,29.91,29.63,27,7,33,0.00
2013-3-17,62.9,52.5,32.9,31.2,16.9,4.9,82,28,10,29.83,29.69,29,11,37,0.00
2013-3-18,63.1,49.0,32.5,27.4,15.4,6.4,40,27,16,29.93,29.81,24,8,28,0.00
2013-3-19,59.0,44.6,24.9,27.1,22.2,16.8,72,43,25,30.14,29.88,17,3,19,0.00
2013-3-20,60.3,44.0,22.2,31.3,25.0,15.9,83,51,29,30.15,29.81,30,8,34,0.00
2013-3-21,63.5,52.6,26.1,30.5,22.4,5.8,52,34,14,29.81,29.60,33,11,37,0.00
2013-3-22,60.3,42.6,18.1,23.5,8.3,-7.4,66,29,10,29.82,29.67,26,8,34,0.00
2013-3-23,44.1,35.7,17.0,8.9,1.3,-4.8,48,24,14,30.11,29.75,26,7,38,0.00
2013-3-24,54.4,36.0,9.1,12.0,5.8,-0.8,66,32,14,30.23,30.07,17,4,28,0.00
2013-3-25,57.8,36.8,13.7,18.4,10.7,2.6,64,37,20,30.18,30.04,5,0,14,0.00
2013-3-26,61.9,44.5,27.9,23.2,18.6,14.6,60,38,21,30.12,29.88,15,4,24,0.00
2013-3-27,63.8,46.0,21.2,24.3,19.1,12.2,70,37,20,30.00,29.87,16,6,27,0.00
2013-3-28,63.3,52.7,42.1,28.5,23.1,17.6,43,32,25,29.99,29.91,17,8,30,0.00
2013-3-29,65.1,49.7,30.2,34.4,26.8,19.2,69,43,23,30.08,29.97,13,1,21,0.01
2013-3-30,62.5,44.4,25.2,34.4,25.5,19.3,82,52,27,30.14,30.03,9,2,28,0.00
2013-3-31,66.2,46.6,23.2,32.6,25.7,18.6,85,49,26,30.10,29.93,15,3,25,0.00
2013-4-1,62.6,48.1,32.0,30.3,22.2,13.3,70,40,17,29.95,29.75,25,8,40,0.00
2013-4-2,56.2,39.1,18.0,32.0,21.4,10.4,83,53,27,30.06,29.88,19,5,27,0.00
2013-4-3,62.1,42.2,23.2,34.4,21.3,11.7,88,50,19,30.19,30.07,12,3,24,0.00
2013-4-4,68.6,48.4,18.1,26.9,20.6,10.3,73,38,16,30.23,29.98,13,4,23,0.00
2013-4-5,67.2,56.2,37.3,32.4,24.8,18.9,49,30,18,29.97,29.70,28,9,32,0.00
2013-4-6,68.5,54.8,32.4,32.7,27.6,20.2,64,36,23,29.85,29.71,19,6,27,0.00
2013-4-7,66.8,52.2,28.2,30.5,26.4,19.5,72,39,21,29.82,29.62,27,5,28,0.00
2013-4-8,50.7,43.4,33.8,35.2,29.5,21.1,79,59,42,29.61,29.15,36,15,46,0.11
2013-4-9,45.2,35.9,29.4,30.2,24.7,16.7,89,65,40,29.93,29.39,22,4,26,0.05
2013-4-10,49.9,38.4,29.2,26.1,18.7,11.4,80,48,22,30.10,29.93,22,7,27,0.00
2013-4-11,63.3,47.8,26.5,28.7,22.5,16.0,66,39,22,30.06,29.78,21,4,25,0.00
2013-4-12,62.7,45.5,22.4,30.7,23.7,14.0,72,45,25,29.88,29.78,19,2,23,0.00
2013-4-13,66.9,50.7,23.7,29.0,24.3,17.8,80,41,22,29.87,29.58,38,11,45,0.00
2013-4-14,64.8,54.2,44.0,31.8,28.0,23.9,47,37,27,29.64,29.42,38,8,46,0.00
2013-4-15,60.7,51.9,43.9,33.2,30.3,26.6,56,44,32,29.52,29.35,47,31,53,0.00
2013-4-16,56.0,46.9,33.0,34.1,26.4,17.6,63,46,29,29.66,29.51,39,18,43,0.00
2013-4-17,46.2,35.7,22.1,19.1,14.8,8.3,61,43,21,30.14,29.65,21,6,32,0.00
2013-4-18,46.8,30.2,10.8,11.5,5.5,-3.5,77,39,18,30.41,30.14,20,4,23,0.00
2013-4-19,61.7,39.1,7.2,15.8,7.4,-5.0,59,30,16,30.46,30.06,14,1,16,0.00
2013-4-20,66.1,49.9,26.1,21.3,15.1,8.8,51,27,12,30.06,29.88,24,6,30,0.00
2013-4-21,72.0,52.1,20.9,26.6,18.7,8.8,60,30,16,30.08,29.90,22,5,26,0.00
2013-4-22,73.0,61.0,46.4,27.0,22.0,15.7,30,22,17,29.93,29.62,27,10,33,0.00
2013-4-23,61.3,47.6,20.4,24.0,14.7,-2.7,42,28,14,29.97,29.63,16,2,17,0.00
2013-4-24,68.5,47.6,14.5,24.6,15.2,-4.2,47,29,18,30.06,29.93,23,5,31,0.00
2013-4-25,63.4,48.5,24.5,29.6,20.8,13.1,63,36,18,30.00,29.83,21,7,29,0.00
2013-4-26,65.8,51.6,25.4,26.6,21.5,13.5,70,34,18,30.12,29.98,26,3,30,0.00
2013-4-27,71.2,51.2,27.2,21.8,14.7,2.4,54,27,14,30.16,29.99,17,2,27,0.00
2013-4-28,75.3,51.5,22.2,22.6,13.2,1.4,45,25,12,30.05,29.85,9,1,15,0.00
2013-4-29,79.4,59.2,27.6,29.5,20.7,8.4,52,25,13,29.90,29.66,20,5,26,0.00
2013-4-30,76.0,64.9,48.5,28.2,21.8,17.6,29,20,14,29.66,29.45,41,15,43,0.00
2013-5-1,73.0,59.2,41.1,26.6,16.4,1.4,26,19,10,30.10,29.60,21,8,26,0.00
2013-5-2,60.1,46.6,34.0,15.2,9.5,1.5,35,23,12,30.32,30.11,19,6,22,0.00
2013-5-3,69.9,47.2,16.0,18.7,9.7,-1.6,46,24,13,30.28,29.91,13,1,14,0.00
2013-5-4,71.5,56.2,24.6,21.5,15.0,5.3,43,21,12,29.90,29.65,24,6,25,0.00
2013-5-5,66.5,53.4,35.6,26.5,21.0,15.5,45,29,20,29.80,29.69,20,5,23,0.00
2013-5-6,61.5,49.3,32.1,42.0,33.1,18.8,80,55,37,29.90,29.77,22,6,31,0.00
2013-5-7,60.1,48.8,38.1,37.8,33.1,23.3,83,57,32,29.88,29.75,27,9,33,0.04
2013-5-8,59.0,46.3,25.1,34.4,29.2,21.1,87,54,33,30.01,29.87,18,4,22,0.00
2013-5-9,74.4,56.3,28.6,36.8,28.5,23.5,84,43,16,30.09,29.95,17,5,24,0.02
2013-5-10,74.4,65.9,23.3,40.3,26.9,19.7,88,29,16,30.17,30.06,17,7,21,0.00
2013-5-11,74.4,67.1,31.3,38.8,27.0,20.8,84,27,16,30.19,30.11,15,7,20,0.00
2013-5-12,74.9,68.0,27.5,34.0,25.2,18.5,70,23,16,30.23,30.04,20,7,22,0.00
2013-5-13,80.9,69.2,31.7,32.5,25.4,16.8,57,21,16,30.12,29.91,14,7,21,0.00
2013-5-14,78.2,71.1,39.3,38.7,27.1,21.1,49,20,16,29.93,29.76,26,9,32,0.00
2013-5-15,74.4,73.9,64.1,30.5,25.4,25.2,26,17,16,29.77,29.72,23,10,24,0.00
2013-5-16,74.9,72.8,53.1,25.6,24.9,21.1,29,17,15,0.00,40.00,15,10,23,0.00
2013-5-17,70.1,59.4,48.4,32.2,26.5,21.3,37,29,21,0.00,40.00,20,8,33,0.00
2013-5-18,69.4,55.2,31.3,34.1,28.5,20.1,65,38,23,29.86,29.78,16,6,24,0.00
2013-5-19,73.0,59.0,38.4,34.1,25.8,21.0,61,30,17,29.85,29.66,23,8,34,0.00
2013-5-20,66.1,48.5,33.4,29.0,22.7,14.5,56,38,20,29.95,29.80,18,4,25,0.00
2013-5-21,76.0,55.9,24.8,31.4,22.6,12.8,61,31,15,30.01,29.78,21,7,29,0.00
2013-5-22,75.8,61.4,38.3,30.9,25.1,17.9,44,26,18,29.78,29.57,29,10,40,0.00
2013-5-23,74.9,63.8,53.5,30.1,24.9,22.4,33,23,15,29.69,29.58,26,14,39,0.00
2013-5-24,75.8,61.3,30.6,29.8,22.8,13.9,51,25,13,29.84,29.69,23,10,33,0.00
2013-5-25,76.5,65.7,56.6,26.6,22.3,17.8,26,19,13,29.78,29.70,20,13,30,0.00
2013-5-26,73.9,63.1,52.9,25.4,20.7,17.8,26,20,15,29.79,29.72,22,11,31,0.00
2013-5-27,75.4,63.6,54.2,29.8,24.4,18.2,31,23,16,29.77,29.61,20,9,28,0.00
2013-5-28,71.9,60.8,47.5,34.0,29.4,22.4,45,31,24,29.63,29.46,23,11,32,0.00
2013-5-29,74.3,61.1,34.4,34.7,30.1,23.2,65,33,20,29.64,29.53,20,10,31,0.00
2013-5-30,78.7,66.1,47.3,40.8,35.9,29.1,50,34,22,29.68,29.59,24,11,30,0.00
2013-5-31,82.8,68.8,50.5,42.8,34.5,18.0,62,31,17,29.77,29.65,14,4,24,0.00
2013-6-1,80.6,62.9,43.2,25.2,18.7,13.8,30,19,12,29.86,29.72,10,2,15,0.00
2013-6-2,83.8,58.0,38.2,38.4,23.4,12.0,38,27,16,29.81,29.63,20,4,28,0.00
2013-6-3,82.2,67.0,40.1,35.5,30.2,26.3,59,28,15,29.72,29.64,16,7,29,0.00
2013-6-4,82.3,70.9,53.4,34.3,28.5,22.9,33,21,14,29.70,29.60,16,8,32,0.00
2013-6-5,83.0,69.0,41.4,34.1,29.1,18.7,41,24,15,29.75,29.64,11,2,29,0.00
2013-6-6,86.0,67.4,39.5,33.7,28.6,22.1,50,26,14,29.74,29.63,13,3,23,0.00
2013-6-7,88.6,71.3,42.9,34.1,26.7,20.9,44,21,11,29.75,29.59,12,3,23,0.00
2013-6-8,92.9,73.5,40.5,35.1,28.6,17.6,40,21,12,29.68,29.56,21,8,30,0.00
2013-6-9,94.2,75.6,43.0,40.0,30.9,22.8,45,21,12,29.70,29.57,19,5,25,0.00
2013-6-10,87.8,77.6,65.4,31.7,24.9,17.5,20,14,11,29.93,29.54,20,9,34,0.00
2013-6-11,87.2,73.9,54.6,38.8,29.3,18.7,34,20,12,29.75,29.62,20,9,29,0.00
2013-6-12,89.5,74.6,53.2,38.2,30.9,21.3,37,21,14,29.79,29.66,15,5,25,0.00
2013-6-13,86.1,70.4,46.5,42.2,34.7,26.8,47,28,18,29.77,29.68,20,7,31,0.00
2013-6-14,85.0,70.8,50.7,38.0,33.1,28.5,44,26,17,29.73,29.60,19,6,30,0.00
2013-6-15,83.3,65.6,41.2,46.0,35.6,25.8,56,35,23,29.84,29.70,21,6,30,0.00
2013-6-16,84.1,66.0,39.1,39.9,31.8,24.0,55,31,17,29.88,29.77,20,5,24,0.00
2013-6-17,84.1,67.7,38.2,35.0,27.1,14.6,49,24,14,29.85,29.72,17,5,24,0.00
2013-6-18,84.6,69.6,42.6,31.2,23.6,14.2,32,18,13,29.76,29.61,16,5,25,0.00
2013-6-19,82.3,70.0,54.2,31.0,23.7,16.2,23,18,13,29.62,29.52,20,8,36,0.00
2013-6-20,82.4,69.1,49.8,31.0,26.1,19.3,33,20,14,29.66,29.56,24,8,30,0.00
2013-6-21,82.8,70.7,51.3,33.4,28.0,23.2,39,21,14,29.67,29.60,17,10,29,0.00
2013-6-22,81.5,70.6,56.0,35.2,29.1,23.3,28,22,17,29.69,29.58,22,9,27,0.00
2013-6-23,81.4,67.8,42.4,32.4,24.9,20.3,42,21,12,29.68,29.56,18,7,30,0.00
2013-6-24,80.0,66.0,52.4,36.5,28.4,20.7,34,25,15,29.71,29.59,21,8,32,0.00
2013-6-25,84.9,70.6,48.4,37.8,32.1,26.0,43,25,18,29.80,29.70,18,8,25,0.00
2013-6-26,88.6,76.2,55.7,36.3,29.8,24.5,30,19,14,29.82,29.72,13,6,23,0.00
2013-6-27,94.8,73.8,43.0,43.2,33.6,22.0,46,25,14,29.91,29.78,9,1,16,0.00
2013-6-28,97.1,78.2,49.9,41.9,35.8,25.7,41,24,13,29.85,29.67,14,4,28,0.00
2013-6-29,94.0,78.3,55.6,44.4,39.0,32.1,42,26,17,30.35,29.67,18,6,24,0.00
2013-6-30,94.3,75.8,54.3,44.6,39.6,33.1,45,29,15,30.39,30.24,17,3,35,0.00
2013-7-1,92.8,79.2,56.2,48.7,43.3,35.7,47,30,17,30.38,30.29,16,3,24,0.00
2013-7-2,88.7,71.1,52.7,54.0,46.1,36.0,65,42,26,30.43,30.33,19,7,28,0.06
2013-7-3,91.1,73.7,51.8,53.4,47.4,42.8,77,42,22,30.40,30.23,22,4,24,0.00
2013-7-4,87.7,74.0,64.2,59.3,49.1,41.9,75,43,27,30.36,30.21,19,5,27,0.21
2013-7-5,84.3,75.5,66.0,55.2,52.2,47.1,62,45,31,30.36,30.22,19,8,29,0.00
2013-7-6,83.6,66.0,51.9,57.8,53.7,48.4,90,67,34,29.80,29.65,13,3,18,0.12
2013-7-7,86.0,68.6,45.8,58.2,49.9,42.1,93,57,23,29.86,29.72,13,2,16,0.01
2013-7-8,88.7,72.2,49.7,53.3,46.9,43.0,87,46,21,29.83,29.72,15,2,20,0.00
2013-7-9,91.5,74.0,49.4,49.8,41.5,35.5,68,35,17,29.89,29.75,11,3,16,0.00
2013-7-10,90.4,73.3,54.6,55.4,46.3,37.3,61,41,19,29.80,29.65,16,4,22,0.00
2013-7-11,82.3,72.4,64.9,57.8,54.9,49.9,68,55,39,29.75,29.63,17,8,25,0.00
2013-7-12,83.7,65.4,49.9,56.7,52.4,46.2,91,67,33,29.83,29.70,14,4,18,0.10
2013-7-13,83.0,65.2,47.7,59.0,53.5,45.5,93,70,36,29.90,29.81,13,3,20,0.11
2013-7-14,85.8,69.1,50.5,57.9,52.3,48.0,92,60,33,29.88,29.73,13,2,20,0.00
2013-7-15,82.7,68.7,55.9,57.5,53.6,48.7,86,62,31,29.79,29.62,14,2,18,0.00
2013-7-16,76.5,64.1,57.0,60.3,55.6,50.8,90,75,47,29.91,29.75,9,1,16,0.00
2013-7-17,79.5,65.3,46.9,58.3,52.9,44.4,93,67,41,29.99,29.86,10,2,17,0.00
2013-7-18,85.3,69.6,48.7,56.3,51.7,44.8,88,57,30,29.93,29.75,14,3,16,0.00
2013-7-19,86.4,70.1,55.0,58.6,53.3,48.6,80,58,31,29.82,29.64,13,2,18,0.09
2013-7-20,82.3,69.4,55.9,58.8,55.1,51.6,87,63,36,29.76,29.61,8,1,15,0.00
2013-7-21,79.5,70.5,58.6,61.4,58.1,53.6,89,66,41,29.85,29.65,11,4,15,0.28
2013-7-22,76.8,64.4,54.6,64.1,57.4,52.3,93,79,50,29.89,29.76,19,1,25,0.26
2013-7-23,78.5,64.1,54.2,61.6,56.6,51.0,92,78,46,29.88,29.76,9,1,15,0.09
2013-7-24,80.8,65.7,48.8,63.5,54.9,46.6,93,71,41,29.89,29.76,12,1,23,0.94
2013-7-25,82.9,70.1,62.3,61.3,58.6,54.1,86,68,42,30.41,29.78,9,1,12,0.11
2013-7-26,83.0,67.1,56.5,61.1,56.6,53.3,92,72,41,30.49,29.82,15,4,27,0.50
2013-7-27,79.1,64.0,55.6,61.8,56.0,52.3,91,77,46,30.17,30.01,14,2,24,0.36
2013-7-28,79.0,65.1,57.0,60.1,54.6,49.0,87,71,42,30.02,29.93,15,5,25,0.26
2013-7-29,79.6,67.6,52.4,57.0,52.2,47.8,92,61,36,30.17,30.01,14,4,22,0.03
2013-7-30,84.3,68.5,50.1,53.8,48.0,40.8,80,52,22,30.25,30.14,10,2,18,0.00
2013-7-31,84.8,67.9,49.5,56.8,51.6,46.0,89,60,28,30.22,30.10,9,1,13,0.01
2013-8-1,82.9,70.2,57.1,57.9,54.9,52.1,86,60,36,30.12,29.96,15,4,21,0.00
2013-8-2,81.5,71.0,60.6,58.3,54.9,52.0,80,58,41,30.04,29.96,12,5,19,0.03
2013-8-3,79.4,69.6,54.1,59.4,54.5,49.7,87,61,37,30.14,30.08,9,1,13,0.00
2013-8-4,82.0,64.8,52.9,58.8,54.3,49.4,89,72,35,30.14,30.09,10,1,17,0.16
2013-8-5,80.9,65.5,50.0,57.0,50.1,45.1,90,61,31,30.17,30.04,10,1,13,0.05
2013-8-6,67.8,62.2,58.4,56.2,50.0,45.3,87,65,46,30.14,30.02,9,1,14,0.17
2013-8-7,74.8,63.4,53.3,55.9,50.3,47.1,88,64,41,30.17,30.05,12,3,16,0.02
2013-8-8,80.3,64.9,45.3,49.2,42.5,35.4,84,49,25,30.14,30.02,10,2,26,0.00
2013-8-9,81.4,65.0,42.5,44.1,37.7,31.9,75,41,18,30.10,30.02,12,2,22,0.00
2013-8-10,80.5,63.1,42.7,49.4,41.1,37.3,84,50,24,30.22,30.09,11,2,17,0.00
2013-8-11,78.4,61.4,44.9,54.5,47.7,41.6,90,64,37,30.21,30.08,9,1,14,0.01
2013-8-12,83.0,64.4,45.0,54.7,47.0,41.4,92,59,24,30.20,30.05,7,1,14,0.01
2013-8-13,84.3,65.2,41.5,48.1,40.8,36.4,87,48,19,30.20,30.07,11,1,17,0.00
2013-8-14,86.4,70.4,47.5,50.7,44.7,36.8,68,43,26,30.15,30.02,10,1,18,0.00
2013-8-15,76.7,67.1,54.6,55.5,49.1,44.1,80,54,38,30.14,30.07,12,2,19,0.00
2013-8-16,83.8,66.5,49.0,59.0,51.8,44.2,86,63,32,30.19,30.09,13,1,27,0.21
2013-8-17,85.1,64.8,52.7,58.4,52.6,47.4,85,67,30,30.14,29.92,12,1,23,0.08
2013-8-18,80.2,65.7,53.1,57.7,52.0,47.6,87,64,34,30.01,29.92,11,1,15,0.00
2013-8-19,82.2,67.5,52.9,54.2,49.7,45.8,85,56,33,30.00,29.87,13,2,20,0.00
2013-8-20,84.5,65.8,45.4,58.3,48.5,41.8,92,60,29,29.97,29.84,11,1,15,0.02
2013-8-21,78.6,67.1,57.5,59.6,52.5,47.6,84,61,37,29.99,29.86,17,4,24,0.12
2013-8-22,79.7,65.8,52.4,56.4,52.5,48.9,89,65,38,30.02,29.87,4,0,8,0.00
2013-8-23,80.2,63.8,46.4,55.1,50.9,43.3,91,67,34,29.93,29.82,12,1,18,0.00
2013-8-24,73.4,62.0,49.2,53.2,50.4,46.1,90,68,43,29.98,29.89,11,1,15,0.01
2013-8-25,67.9,60.0,56.2,57.7,54.5,50.1,92,83,61,30.09,29.96,10,1,13,0.68
2013-8-26,68.7,60.7,55.5,61.6,57.5,52.1,93,90,74,30.08,29.95,9,0,17,1.18
2013-8-27,72.3,61.2,50.0,60.1,54.9,48.1,94,81,58,30.05,29.93,8,0,16,0.00
2013-8-28,79.4,63.8,47.1,60.0,51.6,44.9,96,69,34,30.03,29.92,8,1,12,0.01
2013-8-29,78.9,65.1,49.2,61.2,54.5,46.4,92,71,46,30.05,29.94,9,1,13,0.03
2013-8-30,78.1,64.0,54.9,61.8,57.4,52.3,92,80,50,30.04,29.92,12,0,17,0.41
2013-8-31,72.1,60.8,54.2,62.0,57.3,51.9,93,88,68,29.99,29.90,4,0,8,0.17
2013-9-1,80.1,64.0,48.1,61.0,54.6,46.2,94,74,40,30.02,29.86,9,1,13,0.00
2013-9-2,82.3,64.8,46.2,61.5,53.0,44.0,93,69,33,30.01,29.86,8,1,14,0.03
2013-9-3,81.3,66.0,49.1,58.1,53.3,46.4,92,66,41,30.00,29.90,2,0,10,0.01
2013-9-4,83.2,68.1,52.5,58.0,52.8,48.7,89,62,31,30.00,29.90,13,1,17,0.00
2013-9-5,83.6,65.8,48.6,55.5,49.4,45.2,90,61,29,30.02,29.93,3,0,9,0.00
2013-9-6,83.9,66.1,48.3,55.2,49.3,44.8,88,60,28,30.04,29.88,8,0,12,0.00
2013-9-7,79.1,61.5,51.1,56.8,52.9,47.7,91,76,39,29.96,29.86,11,0,15,0.56
2013-9-8,67.0,58.6,54.0,58.6,54.9,51.4,94,88,68,29.95,29.84,7,0,11,0.20
2013-9-9,59.6,56.3,49.2,57.0,53.5,47.2,93,90,81,29.88,29.77,1,0,6,1.37
2013-9-10,66.4,43.1,49.8,57.2,14.2,-99.9,94,63,66,29.93,29.82,9,1,15,0.21
2013-9-11,69.6,58.2,45.2,55.1,50.6,42.4,92,77,52,30.01,29.91,13,2,16,0.03
2013-9-12,75.1,56.4,38.1,53.3,44.6,-99.9,97,70,38,30.08,29.92,5,-12,10,0.01
2013-9-13,75.4,64.6,49.2,56.5,51.9,46.7,91,66,43,29.82,29.67,3,0,10,0.02
2013-9-14,74.3,53.5,42.3,55.7,42.6,-99.9,93,76,44,29.89,29.75,6,-39,15,1.52
2013-9-15,74.3,57.0,40.1,56.8,44.1,-99.9,94,70,39,29.98,29.90,4,-26,10,0.01
2013-9-16,77.9,62.1,41.3,55.7,45.3,-99.9,93,62,39,30.05,29.89,5,-33,18,0.00
2013-9-17,77.6,52.6,45.5,58.1,21.4,-99.9,93,51,38,29.93,29.71,14,-194,22,0.00
2013-9-18,75.8,63.1,49.9,49.9,28.2,-99.9,85,35,27,29.68,29.60,21,-88,33,0.00
2013-9-19,77.7,63.1,39.7,48.4,34.7,-99.9,82,42,29,29.87,29.79,9,-61,13,0.00
2013-9-20,77.5,52.3,37.5,47.7,22.4,-99.9,91,49,28,29.92,29.81,15,-138,25,0.00
2013-9-21,75.3,60.4,42.3,52.3,43.4,-99.9,89,59,36,29.94,29.67,16,-17,24,0.00
2013-9-22,64.8,26.9,47.0,45.6,-42.6,-99.9,66,16,19,29.74,29.47,25,-559,33,0.00
2013-9-23,70.6,30.5,28.9,38.2,-30.9,-99.9,83,22,28,30.01,29.73,7,-480,13,0.00
2013-9-24,74.9,36.9,26.2,39.0,-11.7,-99.9,88,33,21,30.13,29.87,14,-322,19,0.00
2013-9-25,70.3,31.9,59.0,39.2,-33.5,-99.9,40,17,28,29.87,29.45,28,-502,36,0.00
2013-9-26,68.2,35.4,45.4,43.5,-17.5,-99.9,79,27,27,29.64,29.44,32,-382,42,0.00
2013-9-27,74.8,40.4,27.8,29.3,-0.6,-99.9,64,30,17,30.13,29.62,2,-190,8,0.00
2013-9-28,76.5,40.8,23.2,30.4,13.1,-99.9,80,45,18,30.33,30.13,0,-80,6,0.00
2013-9-29,80.7,34.4,24.7,40.7,-13.8,-99.9,80,33,20,30.31,30.10,1,-334,12,0.18
2013-9-30,-200.0,0.0,200.0,-99.9,-99.9,-99.9,0,0,100,30.10,29.64,0,-999,0,0.00
2013-10-1,73.9,33.1,52.4,34.0,-32.9,-99.9,43,15,16,29.94,29.73,14,-479,21,0.00
2013-10-2,69.7,60.7,50.1,39.5,33.7,23.9,47,37,29,29.92,29.80,19,10,25,0.00
2013-10-3,67.2,58.5,43.6,38.8,33.6,22.9,52,40,29,29.81,29.63,20,9,36,0.00
2013-10-4,53.5,42.3,27.7,23.1,18.3,13.4,71,39,26,30.35,29.81,10,4,14,0.00
2013-10-5,54.6,41.3,22.0,24.4,18.4,11.1,68,41,27,30.48,30.35,13,7,18,0.00
2013-10-6,65.6,45.9,24.1,24.8,16.7,8.4,56,33,18,30.45,30.27,7,2,12,0.00
2013-10-7,74.0,50.8,21.2,32.5,22.7,13.3,75,38,18,30.36,30.02,15,2,21,0.00
2013-10-8,66.6,59.1,48.0,32.0,27.5,22.9,44,30,24,30.02,29.69,19,9,27,0.00
2013-10-9,62.0,53.9,47.6,38.8,30.3,21.6,60,42,24,29.69,29.60,26,14,40,0.00
2013-10-10,46.6,38.0,24.9,35.8,30.3,21.0,87,74,62,30.12,29.60,18,9,26,0.16
2013-10-11,57.2,37.0,18.1,35.9,27.2,14.6,88,70,43,30.29,30.12,5,0,10,0.00
2013-10-12,62.5,41.6,20.0,38.7,26.6,16.8,89,61,25,30.25,30.09,14,3,22,0.01
2013-10-13,60.7,51.7,44.3,34.7,30.6,26.8,57,45,29,30.09,29.86,21,10,29,0.00
2013-10-14,59.7,45.0,24.8,30.0,24.5,16.7,71,46,28,30.13,29.97,13,4,20,0.00
2013-10-15,59.2,40.7,17.3,30.0,23.2,12.5,84,54,29,30.20,30.06,13,4,18,0.00
2013-10-16,56.8,39.3,22.0,28.9,23.5,14.9,83,56,33,30.27,30.18,14,3,17,0.00
2013-10-17,63.1,40.6,14.4,26.6,19.2,9.6,83,48,19,30.34,30.13,14,2,17,0.00
2013-10-18,58.7,42.0,22.3,22.7,18.0,10.5,64,40,21,30.28,30.15,14,3,17,0.00
2013-10-19,62.7,38.3,15.2,24.4,16.3,7.5,73,45,22,30.37,30.24,9,2,15,0.00
2013-10-20,68.2,42.5,16.0,25.0,15.1,7.1,70,39,13,30.27,30.07,15,3,20,0.00
2013-10-21,61.7,45.5,24.9,24.8,17.9,11.2,57,35,21,30.27,30.10,13,4,15,0.00
2013-10-22,62.3,40.2,18.7,26.0,18.8,11.0,75,46,23,30.37,30.26,12,2,13,0.00
2013-10-23,65.9,43.7,19.3,27.5,20.6,12.1,76,45,21,30.32,30.17,11,2,16,0.00
2013-10-24,66.6,48.0,33.9,31.5,25.8,18.9,58,44,26,30.19,30.05,14,2,16,0.00
2013-10-25,62.8,43.8,25.9,41.9,30.7,19.9,85,62,36,30.32,30.16,11,2,14,0.00
2013-10-26,62.5,42.3,23.0,38.0,27.0,19.5,89,59,29,30.39,30.30,12,2,17,0.00
2013-10-27,65.7,47.3,22.9,35.6,26.3,18.4,86,49,22,30.31,29.81,26,6,28,0.00
2013-10-28,56.4,50.0,44.5,36.1,28.9,25.3,68,44,36,29.81,29.67,40,15,49,0.01
2013-10-29,47.2,42.6,37.8,36.5,32.1,26.2,76,66,58,29.97,29.76,29,11,34,0.03
2013-10-30,49.2,36.3,19.2,32.5,23.9,13.1,87,63,35,30.22,29.97,18,4,22,0.01
2013-10-31,55.9,33.3,12.2,28.7,18.9,8.0,85,60,30,30.39,30.19,10,2,14,0.00
2013-11-1,58.2,37.6,17.5,27.6,20.2,11.9,84,53,26,30.34,30.25,12,3,16,0.00
2013-11-2,63.0,37.9,13.9,26.8,16.2,9.5,86,48,15,30.34,30.04,12,2,16,0.00
2013-11-3,59.3,48.0,29.0,27.6,21.3,13.1,66,36,25,30.03,29.70,25,8,27,0.00
2013-11-4,54.4,38.9,17.8,30.7,22.8,11.5,82,55,33,29.93,29.77,21,5,27,0.00
2013-11-5,44.6,31.8,12.8,26.5,15.0,0.8,82,51,31,30.42,29.94,13,4,16,0.00
2013-11-6,50.1,26.8,5.1,12.4,3.7,-4.6,70,41,18,30.66,30.42,12,2,13,0.00
2013-11-7,56.8,31.9,11.5,19.4,8.4,-6.4,60,39,22,30.65,30.38,10,2,13,0.00
2013-11-8,65.3,41.0,17.1,25.4,16.1,6.0,63,40,19,30.38,30.11,13,4,18,0.00
2013-11-9,62.7,39.0,18.1,30.5,20.3,10.4,73,51,26,30.30,30.15,15,3,16,0.00
2013-11-10,62.3,37.3,17.7,28.7,19.9,11.6,81,54,27,30.37,30.26,11,2,14,0.00
2013-11-11,61.4,38.5,17.5,29.4,18.9,11.8,82,50,25,30.45,30.32,13,3,16,0.00
2013-11-12,60.3,38.5,16.7,25.2,17.3,9.2,75,46,24,30.53,30.42,10,2,11,0.00
2013-11-13,59.0,40.8,22.1,33.4,23.8,12.6,77,53,34,30.45,30.17,11,2,12,0.00
2013-11-14,58.2,43.7,20.9,31.0,24.3,16.4,85,50,30,30.17,29.86,18,4,23,0.00
2013-11-15,53.9,47.4,38.9,39.6,33.9,25.2,84,61,39,29.86,29.52,39,11,43,0.08
2013-11-16,49.0,43.3,40.1,36.3,33.5,30.9,84,68,57,29.82,29.58,31,12,38,0.01
2013-11-17,53.5,40.8,23.5,36.3,30.3,19.9,86,67,51,30.17,29.82,21,7,26,0.00
2013-11-18,56.6,36.3,17.3,36.9,26.4,13.8,89,70,44,30.31,30.17,11,2,14,0.00
2013-11-19,57.3,46.9,24.6,37.3,33.9,20.3,87,62,40,30.18,29.83,22,9,25,0.00
2013-11-20,47.6,41.4,36.0,38.2,35.1,29.5,85,78,61,29.89,29.78,16,5,21,0.06
2013-11-21,45.2,41.4,36.2,39.8,37.1,33.0,88,84,80,29.96,29.84,12,3,18,0.20
2013-11-22,36.1,33.7,32.7,33.2,31.3,30.1,92,91,88,30.12,29.94,14,4,15,0.79
2013-11-23,34.8,33.2,31.0,32.4,31.0,28.9,93,92,91,30.15,30.06,10,2,13,0.49
2013-11-24,38.3,30.7,19.2,36.5,28.3,16.7,93,91,82,30.24,30.12,7,2,8,0.19
2013-11-25,41.9,32.2,14.6,29.2,21.9,11.7,92,68,50,30.42,30.24,16,6,20,0.01
2013-11-26,44.8,33.9,20.7,28.0,22.9,17.2,86,65,48,30.43,30.33,11,3,14,0.00
2013-11-27,42.6,27.6,18.3,33.0,22.3,15.1,89,81,61,30.42,30.26,8,1,10,0.01
2013-11-28,45.3,28.8,16.0,33.6,22.9,12.6,88,79,56,30.39,30.24,11,2,13,0.00
2013-11-29,45.3,28.6,16.9,35.0,23.7,13.4,88,82,66,30.48,30.35,11,2,13,0.01
2013-11-30,31.8,26.8,18.4,29.7,24.4,15.2,92,90,87,30.51,30.40,4,1,7,0.00
2013-12-1,34.8,29.1,23.1,33.0,27.2,20.9,93,92,91,30.54,30.42,6,2,8,0.01
2013-12-2,59.7,37.4,16.4,38.4,25.1,13.5,93,66,27,30.44,29.93,15,3,20,0.00
2013-12-3,49.6,43.2,34.6,30.2,23.7,17.3,64,47,32,29.93,29.52,47,19,57,0.00
2013-12-4,40.9,31.1,17.1,32.6,22.5,7.4,88,71,43,29.94,29.46,29,10,32,0.06
2013-12-5,30.7,22.6,13.6,17.0,10.2,4.4,80,60,40,30.13,29.94,18,6,21,0.00
2013-12-6,33.9,21.0,3.0,9.7,4.4,-2.9,78,51,32,30.31,30.13,16,4,20,0.00
2013-12-7,27.9,25.2,21.8,25.3,14.4,-1.4,90,66,31,30.21,29.84,36,17,43,0.00
2013-12-8,31.9,24.8,10.9,25.4,16.3,3.9,89,70,50,30.17,29.91,39,10,41,0.00
2013-12-9,23.3,9.9,-4.8,5.0,-1.3,-10.0,79,62,40,30.83,30.16,14,4,21,0.00
2013-12-10,31.8,9.7,-9.1,10.8,-1.3,-14.9,78,63,35,30.85,30.63,5,1,7,0.00
2013-12-11,35.1,14.8,-5.5,12.6,3.1,-10.9,80,63,35,30.81,30.70,6,1,7,0.00
2013-12-12,38.0,24.4,6.9,18.3,12.9,2.3,81,64,43,30.78,30.40,6,2,9,0.00
2013-12-13,49.5,30.4,12.1,30.2,15.8,8.2,86,59,31,30.40,30.21,18,4,25,0.00
2013-12-14,38.5,30.7,19.0,18.5,15.7,12.4,75,54,40,30.56,30.33,12,5,16,0.00
2013-12-15,50.8,31.4,13.7,22.6,16.0,7.6,78,57,31,30.62,30.49,8,3,12,0.00
2013-12-16,54.2,32.0,16.2,29.0,19.0,11.4,84,63,29,30.56,30.46,5,1,8,0.00
2013-12-17,51.9,31.4,14.4,27.6,19.9,9.9,85,66,32,30.60,30.42,4,1,7,0.00
2013-12-18,56.0,38.5,22.2,30.7,22.1,17.8,84,57,27,30.42,29.86,12,3,16,0.00
2013-12-19,44.9,38.8,29.3,29.1,25.3,22.0,90,60,42,29.86,29.58,27,15,38,0.00
2013-12-20,36.2,30.3,18.7,32.7,26.7,15.0,92,86,71,29.84,29.67,8,2,12,0.36
2013-12-21,43.1,27.8,10.5,26.7,18.9,7.1,88,71,46,30.11,29.81,17,4,20,0.01
2013-12-22,44.3,25.7,9.9,20.5,14.7,5.0,83,65,35,30.50,30.11,12,2,15,0.00
2013-12-23,41.9,26.7,14.6,23.5,17.1,9.1,85,68,44,30.64,30.50,7,2,9,0.00
2013-12-24,52.3,30.7,11.0,31.3,19.6,7.1,86,66,36,30.60,30.39,7,2,10,0.00
2013-12-25,41.9,32.6,18.0,22.6,12.9,9.2,72,46,28,30.50,30.41,11,4,17,0.00
2013-12-26,47.2,32.8,13.0,20.2,9.9,4.7,71,41,24,30.55,30.42,9,3,12,0.00
2013-12-27,46.3,34.0,20.0,21.3,14.5,5.2,80,47,25,30.45,30.28,9,3,12,0.00
2013-12-28,50.1,30.9,16.2,27.2,19.2,11.7,83,64,34,30.31,30.09,15,2,19,0.00
2013-12-29,36.7,31.5,17.9,23.2,15.5,5.2,70,52,40,30.35,30.09,19,7,23,0.00
2013-12-30,47.7,28.4,9.4,21.1,11.9,2.0,80,54,23,30.54,30.35,6,2,9,0.00
2013-12-31,55.9,30.9,13.3,28.4,18.5,9.1,85,65,28,30.52,30.29,6,2,11,0.00
2014-1-1,49.0,34.1,19.5,24.8,19.4,13.6,81,57,35,30.40,30.27,14,4,18,0.00
2014-1-2,51.0,29.1,10.8,24.0,14.9,5.0,81,60,23,30.48,30.35,6,2,8,0.00